Date String (YYYY-MM-DD hh:mm:ss) UTC,Instrument flags,Ambient pressure (hPa),Sample flow (lpm),Bypass flow (lpm),Sample temperature (°C),Ambient temperature (°C),ASC tube jacket temperature (°C),LED temperature (°C),Box temperature (°C),Sample RH (%),Span deviation,Mass concentration (μg/m³),Mass concentration (μg/m³),Mass concentration (μg/m³)
DateTimeUTC,F1_M11,P_M11,Q1_M11,Q2_M11,T1_M11,T2_M11,T3_M11,T4_M11,T5_M11,U1_M11,ZSPAN_M11,X0_M11,X2_M11,X1_M11
2022-10-30 00:00:00,,0829.3,5.00,0.00,28.8,27.4,00.0,37.5,30.6,05.7,0000.0,0009.45,0003.31,0002.88
2022-10-30 00:01:00,,0829.2,4.98,0.00,28.8,27.4,00.0,37.5,30.6,05.7,0000.0,0009.15,0003.29,0002.87
2022-10-30 00:02:00,,0829.2,5.00,0.00,28.8,27.4,00.0,37.5,30.6,05.7,0000.0,0009.44,0003.32,0002.88
2022-10-30 00:03:00,,0829.2,5.00,0.00,28.8,27.4,00.0,37.5,30.7,05.7,0000.0,0009.06,0003.32,0002.88
2022-10-30 00:04:00,,0829.2,5.02,0.00,28.8,27.4,00.0,37.5,30.6,05.7,0000.0,0008.22,0003.33,0002.88
2022-10-30 00:05:00,,0829.3,4.98,0.00,28.8,27.4,00.0,37.5,30.7,05.7,0000.0,0007.95,0003.32,0002.88
2022-10-30 00:06:00,,0829.2,5.02,0.00,28.8,27.4,00.0,37.6,30.7,05.7,0000.0,0007.77,0003.33,0002.88
2022-10-30 00:07:00,,0829.2,5.00,0.00,28.8,27.4,00.0,37.6,30.7,05.6,0000.0,0008.23,0003.30,0002.88
2022-10-30 00:08:00,,0829.2,4.98,0.00,28.8,27.4,00.0,37.6,30.6,05.6,0000.0,0007.76,0003.32,0002.91
2022-10-30 00:09:00,,0829.2,5.00,0.00,28.8,27.4,00.0,37.6,30.7,05.6,0000.0,0007.93,0003.32,0002.91
2022-10-30 00:10:00,,0829.2,5.01,0.00,28.8,27.4,00.0,37.6,30.7,05.6,0000.0,0008.67,0003.36,0002.92
2022-10-30 00:11:00,,0829.4,4.99,0.00,28.8,27.4,00.0,37.6,30.7,05.6,0000.0,0008.74,0003.40,0002.94
2022-10-30 00:12:00,,0829.3,4.99,0.00,28.8,27.4,00.0,37.6,30.7,05.6,0000.0,0008.70,0003.41,0002.94
2022-10-30 00:13:00,,0829.4,5.01,0.00,28.9,27.4,00.0,37.6,30.7,05.6,0000.0,0008.53,0003.40,0002.94
2022-10-30 00:14:00,,0829.4,5.00,0.00,28.9,27.4,00.0,37.6,30.7,05.6,0000.0,0008.89,0003.41,0002.94
2022-10-30 00:15:00,,0829.5,5.00,0.00,28.9,27.4,00.0,37.6,30.7,05.6,0000.0,0008.68,0003.39,0002.94
2022-10-30 00:16:00,,0829.5,5.00,0.00,28.9,27.4,00.0,37.6,30.7,05.6,0000.0,0008.49,0003.35,0002.93
2022-10-30 00:17:00,,0829.4,4.99,0.00,28.9,27.4,00.0,37.6,30.7,05.6,0000.0,0008.39,0003.35,0002.93
2022-10-30 00:18:00,,0829.4,5.00,0.00,28.9,27.4,00.0,37.6,30.7,05.6,0000.0,0007.97,0003.39,0002.92
2022-10-30 00:19:00,,0829.4,5.02,0.00,28.9,27.4,00.0,37.6,30.7,05.6,0000.0,0008.02,0003.38,0002.90
2022-10-30 00:20:00,,0829.3,5.00,0.00,28.9,27.4,00.0,37.6,30.7,05.6,0000.0,0008.13,0003.39,0002.89
2022-10-30 00:21:00,,0829.3,4.98,0.00,28.9,27.4,00.0,37.6,30.7,05.8,0000.0,0007.87,0003.38,0002.89
2022-10-30 00:22:00,,0829.4,5.02,0.00,28.8,27.4,00.0,37.6,30.7,06.2,0000.0,0007.95,0003.36,0002.86
2022-10-30 00:23:00,,0829.3,5.00,0.00,28.8,27.3,00.0,37.6,30.7,06.2,0000.0,0008.05,0003.35,0002.85
2022-10-30 00:24:00,,0829.3,4.98,0.00,28.8,27.3,00.0,37.6,30.7,06.2,0000.0,0007.98,0003.34,0002.84
2022-10-30 00:25:00,,0829.4,5.00,0.00,28.8,27.3,00.0,37.6,30.6,06.2,0000.0,0008.32,0003.35,0002.84
2022-10-30 00:26:00,,0829.3,5.02,0.00,28.8,27.3,00.0,37.6,30.6,06.2,0000.0,0008.69,0003.35,0002.83
2022-10-30 00:27:00,,0829.2,4.99,0.00,28.8,27.3,00.0,37.6,30.6,06.2,0000.0,0008.81,0003.36,0002.81
2022-10-30 00:28:00,,0829.2,4.99,0.00,28.8,27.3,00.0,37.6,30.6,06.2,0000.0,0008.98,0003.40,0002.80
2022-10-30 00:29:00,,0829.2,5.00,0.00,28.8,27.3,00.0,37.6,30.6,06.2,0000.0,0008.72,0003.35,0002.78
2022-10-30 00:30:00,,0829.2,5.01,0.00,28.8,27.2,00.0,37.6,30.6,06.2,0000.0,0008.56,0003.32,0002.76
2022-10-30 00:31:00,,0829.2,5.00,0.00,28.8,27.2,00.0,37.6,30.6,06.3,0000.0,0008.70,0003.30,0002.75
2022-10-30 00:32:00,,0829.2,5.02,0.00,28.8,27.2,00.0,37.6,30.6,06.3,0000.0,0008.25,0003.30,0002.74
2022-10-30 00:33:00,,0829.2,5.00,0.00,28.8,27.2,00.0,37.6,30.6,06.3,0000.0,0007.93,0003.27,0002.72
2022-10-30 00:34:00,,0829.3,5.00,0.00,28.8,27.2,00.0,37.6,30.5,06.3,0000.0,0008.03,0003.27,0002.70
2022-10-30 00:35:00,,0829.3,5.00,0.00,28.8,27.2,00.0,37.6,30.5,06.3,0000.0,0007.90,0003.26,0002.68
2022-10-30 00:36:00,,0829.2,5.00,0.00,28.7,27.1,00.0,37.6,30.5,06.3,0000.0,0007.11,0003.25,0002.68
2022-10-30 00:37:00,,0829.2,5.00,0.00,28.7,27.1,00.0,37.6,30.5,06.4,0000.0,0006.30,0003.24,0002.66
2022-10-30 00:38:00,,0829.2,5.00,0.00,28.7,27.1,00.0,37.6,30.5,06.4,0000.0,0006.08,0003.21,0002.66
2022-10-30 00:39:00,,0829.2,5.00,0.00,28.7,27.1,00.0,37.6,30.5,06.5,0000.0,0005.86,0003.16,0002.66
2022-10-30 00:40:00,,0829.2,5.00,0.00,28.7,27.1,00.0,37.6,30.5,06.4,0000.0,0006.08,0003.16,0002.67
2022-10-30 00:41:00,,0829.2,5.00,0.00,28.7,27.1,00.0,37.6,30.5,06.5,0000.0,0006.05,0003.16,0002.67
2022-10-30 00:42:00,,0829.2,5.00,0.00,28.7,27.1,00.0,37.6,30.5,06.6,0000.0,0005.53,0003.17,0002.66
2022-10-30 00:43:00,,0829.3,5.01,0.00,28.7,27.0,00.0,37.5,30.4,06.7,0000.0,0005.46,0003.16,0002.67
2022-10-30 00:44:00,,0829.3,5.00,0.00,28.7,27.0,00.0,37.5,30.4,07.0,0000.0,0005.45,0003.17,0002.68
2022-10-30 00:45:00,,0829.2,4.98,0.00,28.7,27.0,00.0,37.5,30.4,07.2,0000.0,0005.52,0003.18,0002.67
2022-10-30 00:46:00,,0829.2,5.00,0.00,28.6,27.0,00.0,37.5,30.4,07.4,0000.0,0005.67,0003.19,0002.66
2022-10-30 00:47:00,,0829.2,5.02,0.00,28.6,27.0,00.0,37.5,30.4,07.3,0000.0,0006.80,0003.19,0002.64
2022-10-30 00:48:00,,0829.3,5.00,0.00,28.6,27.0,00.0,37.5,30.4,07.2,0000.0,0007.22,0003.19,0002.64
2022-10-30 00:49:00,,0829.2,5.01,0.00,28.6,27.0,00.0,37.5,30.3,07.2,0000.0,0007.34,0003.24,0002.64
2022-10-30 00:50:00,,0829.3,5.01,0.00,28.6,26.9,00.0,37.5,30.3,07.2,0000.0,0007.35,0003.25,0002.64
2022-10-30 00:51:00,,0829.3,5.00,0.00,28.6,26.9,00.0,37.5,30.3,07.3,0000.0,0007.14,0003.27,0002.63
2022-10-30 00:52:00,,0829.3,5.00,0.00,28.6,26.9,00.0,37.5,30.3,07.4,0000.0,0007.41,0003.28,0002.61
2022-10-30 00:53:00,,0829.3,5.00,0.00,28.6,26.9,00.0,37.5,30.3,07.4,0000.0,0007.45,0003.28,0002.60
2022-10-30 00:54:00,,0829.3,5.00,0.00,28.6,26.9,00.0,37.4,30.3,07.3,0000.0,0007.42,0003.26,0002.57
2022-10-30 00:55:00,,0829.3,5.00,0.00,28.5,26.8,00.0,37.4,30.3,07.2,0000.0,0007.36,0003.25,0002.56
2022-10-30 00:56:00,,0829.3,5.00,0.00,28.5,26.8,00.0,37.4,30.3,07.1,0000.0,0007.89,0003.23,0002.56
2022-10-30 00:57:00,,0829.3,5.00,0.00,28.5,26.9,00.0,37.4,30.3,07.3,0000.0,0008.05,0003.22,0002.57
2022-10-30 00:58:00,,0829.3,5.00,0.00,28.5,26.8,00.0,37.4,30.2,07.3,0000.0,0008.03,0003.21,0002.58
2022-10-30 00:59:00,,0829.3,5.00,0.00,28.5,26.8,00.0,37.4,30.2,07.3,0000.0,0007.82,0003.22,0002.58
